Home > Weather > Corvallis > Past weeks

Flag for U.S.A. Weather for the Past 2 Weeks in Corvallis, Oregon, U.S.A.

Now
43 °F

Clear.


Feels Like: 40 °F
Forecast: 44 / 51 °F
Wind: 5 mph from Southwest

Location: Corvallis Municipal

Current Time: Feb 13, 2016 at 6:03:10 AM

Latest Report: Feb 13, 2016 at 5:35 AM


Visibility: 10 mi

Pressure: 30.37 "Hg

Humidity: 87%

Dew point: 39 °F

Location of CorvallisLocation

Historic Weather in Corvallis — Graph

°F

Corvallis Temperature Yesterday

Maximum temperature yesterday: 57 °F (at 11:55 AM)
Minimum temperature yesterday: 45 °F (at 11:35 PM)
Average temperature yesterday: 52 °F

High & Low Weather Summary for the Past Weeks

 TemperatureHumidityPressure
High63 °F (Feb 8, 2:55 PM)100% (Jan 31, 8:15 AM)30.54 "Hg (Jan 31, 8:15 AM)
Low30 °F (Jan 31, 7:55 AM)52% (Feb 8, 4:35 PM)29.65 "Hg (Jan 29, 6:35 AM)
Average45 °F85%30.24 "Hg
* Reported Jan 29 4:15 AM — Feb 13 4:55 AM, Corvallis, Weather by CustomWeather, © 2016

Note: Actual official high and low records may vary slightly from our data, if they occured in-between our weather recording intervals... More about our weather records

Advertising

Corvallis Weather History for the Previous 24 Hours

 ConditionsComfort  
Time TempWeatherWind HumidityBarometerVisibility
4:55 AM
Sat, Feb 13
43 °FClear.10 mph87%30.37 "Hg10 mi
4:35 AM43 °FClear.9 mph87%30.38 "Hg10 mi
4:15 AM43 °FPassing clouds.3 mph87%30.38 "Hg10 mi
3:55 AM43 °FPassing clouds.3 mph87%30.38 "Hg10 mi
3:35 AM43 °FClear.3 mph81%30.37 "Hg10 mi
3:15 AM43 °FClear.3 mph87%30.37 "Hg10 mi
2:55 AM43 °FClear.7 mph87%30.36 "Hg10 mi
2:35 AM45 °FClear.9 mph81%30.36 "Hg10 mi
2:15 AM45 °FPassing clouds.12 mph87%30.35 "Hg10 mi
1:55 AM45 °FPassing clouds.8 mph87%30.35 "Hg10 mi
1:35 AM46 °FPassing clouds.8 mph82%30.36 "Hg10 mi
1:15 AM45 °FClear.9 mph87%30.35 "Hg10 mi
12:55 AM46 °FPassing clouds.6 mph82%30.35 "Hg10 mi
12:35 AM48 °FPassing clouds.No wind76%30.35 "Hg10 mi
12:15 AM45 °FPassing clouds.3 mph87%30.35 "Hg10 mi
11:55 PM
Fri, Feb 12
45 °FClear.7 mph87%30.34 "Hg10 mi
11:35 PM45 °FClear.7 mph81%30.33 "Hg10 mi
11:15 PM46 °FClear.No wind87%30.32 "Hg10 mi
10:55 PM46 °FPassing clouds.7 mph87%30.31 "Hg10 mi
10:35 PM46 °FPassing clouds.No wind87%30.32 "Hg10 mi
10:15 PM46 °FPassing clouds.3 mph87%30.31 "Hg10 mi
9:55 PM46 °FClear.6 mph87%30.31 "Hg10 mi
9:35 PM46 °FClear.3 mph82%30.30 "Hg10 mi
9:15 PM46 °FClear.7 mph87%30.30 "Hg10 mi
8:55 PM46 °FClear.6 mph87%30.29 "Hg10 mi
8:35 PM46 °FClear.6 mph87%30.29 "Hg10 mi
8:15 PM48 °FClear.7 mph82%30.29 "Hg10 mi
7:55 PM48 °FClear.5 mph82%30.28 "Hg10 mi
7:35 PM46 °FClear.6 mph87%30.28 "Hg10 mi
7:15 PM48 °FClear.3 mph87%30.27 "Hg10 mi
6:35 PM48 °FPassing clouds.3 mph87%30.26 "Hg10 mi
6:15 PM50 °FPassing clouds.No wind82%30.26 "Hg10 mi
5:35 PM52 °FPassing clouds.3 mph77%30.25 "Hg10 mi
4:55 PM55 °FPassing clouds.7 mph67%30.24 "Hg10 mi
4:35 PM55 °FScattered clouds.9 mph67%30.23 "Hg10 mi
4:15 PM55 °FMostly cloudy.9 mph72%30.23 "Hg10 mi
3:55 PM55 °FMostly cloudy.10 mph72%30.23 "Hg10 mi
3:15 PM55 °FMostly cloudy.13 mph88%30.21 "Hg10 mi
2:55 PM55 °FOvercast.14 mph88%30.21 "Hg10 mi
2:35 PM55 °FOvercast.12 mph88%30.20 "Hg10 mi
2:15 PM55 °FOvercast.15 mph88%30.20 "Hg10 mi
1:35 PM57 °FMore clouds than sun.12 mph88%30.21 "Hg10 mi
12:55 PM57 °FCloudy.9 mph88%30.20 "Hg10 mi
12:35 PM57 °FBroken clouds.9 mph88%30.21 "Hg10 mi
12:15 PM57 °FOvercast.7 mph88%30.20 "Hg10 mi
11:55 AM57 °FMore clouds than sun.6 mph88%30.20 "Hg10 mi
11:35 AM55 °FOvercast.8 mph94%30.20 "Hg10 mi
11:15 AM55 °FOvercast.3 mph94%30.19 "Hg10 mi
10:55 AM55 °FOvercast.3 mph88%30.20 "Hg10 mi
10:35 AM54 °FMore clouds than sun.No wind88%30.19 "Hg6 mi
10:15 AM54 °FBroken clouds.5 mph88%30.19 "Hg6 mi
9:55 AM52 °FOvercast.No wind88%30.19 "Hg5 mi
9:35 AM52 °FBroken clouds.3 mph88%30.18 "Hg4 mi
9:15 AM52 °FCloudy.5 mph88%30.17 "Hg5 mi
8:55 AM52 °FMostly cloudy.No wind88%30.16 "Hg10 mi
8:35 AM52 °FMostly cloudy.No wind88%30.17 "Hg7 mi
8:15 AM52 °FMostly cloudy.No wind88%30.16 "Hg6 mi
7:55 AM52 °FOvercast.No wind88%30.16 "Hg10 mi
7:35 AM52 °FOvercast.No wind88%30.16 "Hg10 mi
7:15 AM52 °FOvercast.No wind88%30.15 "Hg10 mi
6:55 AM52 °FOvercast.No wind88%30.16 "Hg6 mi
6:35 AM52 °FOvercast.3 mph88%30.16 "Hg10 mi
6:15 AM50 °FMostly cloudy.No wind88%30.16 "Hg1 mi
Weather by CustomWeather, © 2016

See weather overviewHow to use our weather pages